Strona główna
METAR-TAF:

METAR-TAF

Lotnisko :

Hazen, Dakota Północna, Stany Zjednoczone

Szerokość geograficzna: 47-17-24N, Długość geograficzna: 101-34-52W, wysokość: 553 m

Aktualna obserwacja pogody

Raport powstał 20 minut temu, godzina 21:35 UTC
Wiatr 7 kt od południowo-południowy wschód
Temperatura 15°C
Wilgotność 59%
Ciśnienie 1002 hPa
Widzialność: 14.5 km
bezchmurnie

METAR: KHZE 062135Z AUTO 15007KT 9SM CLR 15/07 A2960 RMK AO2

czas: 16:55 (21:55 UTC)


TAF: brakujący

Obserwacja i prognoza pogody dla ponad 4000 lotnisk (raport METAR i TAF).

Dostępne stacje oznaczono żółtymi i czerwonymi punktami na mapie.

Najedź kursorem aby zobaczyć nazwę stacji.

Kliknij aby zobaczyć obserwacje i prognozy pogody.

Aby zmienić mapę: kliknij na zielony przycisk z czarnym krzyżykiem, aby powiększyć; na zielony przycisk z myślnikiem, aby pomniejszyć; na zielone strzałki, aby przejść do map sąsiednich.


METAR-TAF: